Дата Пункты Температура Давл., мм. Влажн., % Ветер Погодные явления
Воздуха Воды Направл. Скорость
19.01.15 04:00 Одесса 3.0 2.0 757 100 Пн 2 17 часов
19.01.15 01:00 Одесса 2.0 2.0 758 100 Пн 2 14 часов
19.01.15 10:00 Одесса 1.0 2.0 759 100 Пн-З 1 11 часов
19.01.15 04:00 Одесса -1.0 2.0 760 100 Пн 1 05 часов
18.01.15 10:00 Одесса 2.0 2.0 761 100 Пн 0 23 часа
18.01.15 07:00 Одесса 3.0 2.0 761 100 Пд-З 1 20 часов
18.01.15 04:00 Одесса 4.0 2.0 761 99 Пд-З 1 17 часов
18.01.15 01:00 Одесса 5.0 2.0 762 96 Пд-З 3 14 часов
18.01.15 10:00 Одесса 6.0 2.0 763 95 Пд-З 2 11 часов
18.01.15 07:00 Одесса 5.0 2.0 763 93 Пд 3 08 часов
18.01.15 04:00 Одесса 5.0 2.0 764 92 Пд 3 05 часов
18.01.15 01:00 Одесса 5.0 2.0 765 90 Пд 3 02 часа
17.01.15 10:00 Одесса 5.0 2.0 765 87 Пд 3 23 часа
17.01.15 07:00 Одесса 5.0 2.0 765 87 Пд 3 20 часов
17.01.15 04:00 Одесса 4.0 1.0 765 89 Пд-З 2 17 часов
17.01.15 01:00 Одесса 5.0 1.0 765 88 Пд-З 2 14 часов
17.01.15 10:00 Одесса 3.0 2.0 766 94 Пд 3 11 часов
17.01.15 07:00 Одесса 2.0 2.0 766 97 Пд-З 1 08 часов
17.01.15 04:00 Одесса 2.0 2.0 766 97 Пд-С 5 05 часов
17.01.15 01:00 Одесса 2.0 2.0 767 98 Пд-С 5 02 часа
Количество строк
421 422 423 424 425 426 427 428 429 430
Page 424 of 472